STARLINK-34493, 64472

Orbit data source: Space-Track

STARLINK-34493, 64472 is a payload satellite owned by SpaceX/Seattle (US) in LEO that was launched on Mon, 23 Jun 2025 UTC via an FALCON 9 launch vehicle from the Air Force Eastern Test Range (AFETR). Payload-class satellites include a variety of spacecraft equipped with specific instruments for various scientific and technological missions. These include communications satellites like Starlink; space stations such as the ISS; scientific satellites like the Hubble; Earth observation satellites from companies like Planet Labs, Umbra, and HawkEye 360; GPS; miniature CubeSats for education and research; and military/defense satellites.

Loading next visibility...
Identifier
64472, 2025-133A
Orbit
LEO
Country
Flag of USUS
Related business
Manufacturer
SpaceX/Seattle
Mission
Operational Commercial Communications
Bus & Motor
STARLINK V2MO, Unknown motor
Mass
575 kg wet, ~530 kg dry
Launch date (UTC)
2025-06-23 (1 year ago)
Launch vehicle
FALCON 9
Launch site
Air Force Eastern Test Range (AFETR)
Object type
Payload
Rocket body
Debris
Shape & HBR
Box + 2 Pan, 17.7 m
Radar Cross Section
36.964 m², Large (>1 m²)

Expand to show TLE details & history
Last TLE update: 1 day ago

TLE from 1 day ago
0 STARLINK-34493
1 64472U 25133A   26170.76634755  .00026045  00000-0  88826-3 0  9998
2 64472  53.1591   2.8902 0000729  98.8044 261.3039 15.30205407 56812
Epoch: 2026-06-19T18:23Z
TLE epoch observation values (Epoch: 2026-06-19T18:23:32.428Z)
Latitude
-0.00004°
Longitude
179.01444°
Altitude
476.174 km
Speed
7.629 km/s
True Right ascension
00h 11m 33s
True Declination
0° 00' 00"
Sunlit
Object was in daylight at epoch
Visualization orbit readout
Latitude
Unknown
Longitude
Unknown
Altitude
Unknown
Speed
Unknown
Apparent Right ascension
Unknown
Apparent Declination
Unknown
Sunlit
N/A
Visualization observer readout
Local Sidereal Time
10:18:37
Azimuth
Unknown
Elevation
Unknown
Doppler factor
Unknown
Orbital elements
Apogee altitude
475.955 km
Perigee altitude
474.956 km
Semi-major axis
6,853.593 km
Eccentricity
0.00007
Inclination
53.1591°
RAAN
2.8902°
Arg. of periapsis
98.8044°
True anomaly
261.29564°
Mean anomaly
261.3039°
Eccentric anomaly
261.29977°
Mean motion
3.8253 °/min
Orbital period
94.11 mins
BSTAR
0.00088826
Loading maneuver chart data...
Computing Atmospheric mass density...
Loading historical data...
Loading historical data...
Loading historical data...
Loading historical data...
Loading historical data...
Loading historical data...
Loading historical data...

Documentation

Showing up to 5 results
|